Location: Mohawk View
(42.7837°N, 73.7885°W)
Time: 13:10:09
(UTC+00:00)

SL-8 R/B - Pass Details

Date: 17 June 2021
Orbit: 656 x 667 km, 48.4° (Epoch: 26 July)

Event Time Altitude Azimuth Distance (km) Brightness Sun altitude
Rises 04:07:26 0° 294° (WNW) 2,989 7.6 -22.9°
Reaches altitude 10° 04:09:52 10° 288° (WNW) 2,072 6.6 -23.0°
Enters shadow 04:13:38 40° 243° (WSW) 969 4.3 -23.1°
